TimeCST,TemperatureF,Dew PointF,Humidity,Sea Level PressureIn,VisibilityMPH,Wind Direction,Wind SpeedMPH,Gust SpeedMPH,PrecipitationIn,Events,Conditions,WindDirDegrees,DateUTC
12:53 AM,46.9,34.0,61,30.10,10.0,South,3.5,-,N/A,,Clear,180,2013-02-15 06:53:00
1:53 AM,46.9,35.1,63,30.11,10.0,SSE,3.5,-,N/A,,Clear,160,2013-02-15 07:53:00
2:53 AM,43.0,35.1,74,30.11,10.0,Calm,Calm,-,N/A,,Clear,0,2013-02-15 08:53:00
3:53 AM,43.0,35.1,74,30.11,10.0,Calm,Calm,-,N/A,,Clear,0,2013-02-15 09:53:00
4:53 AM,39.0,34.0,82,30.12,10.0,Calm,Calm,-,N/A,,Clear,0,2013-02-15 10:53:00
5:53 AM,37.9,35.1,89,30.15,10.0,Calm,Calm,-,N/A,,Clear,0,2013-02-15 11:53:00
6:53 AM,37.9,36.0,93,30.18,10.0,NNW,3.5,-,N/A,,Overcast,330,2013-02-15 12:53:00
7:53 AM,42.1,36.0,79,30.22,10.0,Calm,Calm,-,N/A,,Partly Cloudy,0,2013-02-15 13:53:00
8:53 AM,50.0,37.9,63,30.23,10.0,NNW,4.6,-,N/A,,Clear,340,2013-02-15 14:53:00
9:53 AM,53.1,37.9,57,30.24,10.0,NE,4.6,-,N/A,,Clear,40,2013-02-15 15:53:00
10:53 AM,57.0,37.9,49,30.25,10.0,Variable,5.8,-,N/A,,Mostly Cloudy,0,2013-02-15 16:53:00
11:53 AM,57.0,37.0,47,30.23,10.0,Variable,3.5,-,N/A,,Mostly Cloudy,0,2013-02-15 17:53:00
12:53 PM,59.0,37.9,46,30.22,10.0,North,5.8,-,N/A,,Overcast,350,2013-02-15 18:53:00
1:53 PM,57.9,36.0,44,30.21,10.0,North,9.2,16.1,N/A,,Overcast,10,2013-02-15 19:53:00
2:53 PM,57.9,37.9,47,30.20,10.0,North,9.2,17.3,N/A,,Overcast,10,2013-02-15 20:53:00
3:53 PM,55.9,37.9,51,30.20,10.0,North,10.4,17.3,N/A,,Overcast,360,2013-02-15 21:53:00
4:53 PM,53.1,39.0,59,30.22,10.0,North,11.5,17.3,N/A,,Overcast,360,2013-02-15 22:53:00
6:53 PM,50.0,35.1,57,30.27,10.0,Variable,3.5,-,N/A,,Overcast,0,2013-02-16 00:53:00
7:53 PM,48.0,37.0,66,30.29,10.0,Calm,Calm,-,0.00,Rain,Light Rain,0,2013-02-16 01:53:00
8:53 PM,46.9,35.1,63,30.33,10.0,NNW,6.9,-,0.00,,Overcast,330,2013-02-16 02:53:00
9:53 PM,46.0,30.0,54,30.35,10.0,Calm,Calm,-,N/A,,Overcast,0,2013-02-16 03:53:00
10:53 PM,44.1,28.9,55,30.35,10.0,NNW,3.5,-,N/A,,Mostly Cloudy,340,2013-02-16 04:53:00
11:53 PM,44.1,28.0,53,30.35,10.0,NW,3.5,-,N/A,,Mostly Cloudy,320,2013-02-16 05:53:00